CZ-4C R/B

Satellite information

Favourite Embed

Satellite Type and Status

ROCKET BODYIN ORBIT

Key statistics

Satellite CZ-4C R/B at a glance.

Uptime

1027

Days in orbit

Revolutions

≈ 13.7

Per day

Orbit

LEO

Low Earth Orbit

Inclination

63.4

Latest

Satellite identification and parameters

Extended collection of information and parameters for CZ-4C R/B.

Object identification

Identified? True

Debris? False

Object name: CZ-4C R/B

International designator: 2022-154B

Object number (NORAD): 54250

Object ID (CCSDS): 54250

Country: PEOPLES REPUBLIC OF CHINA (PRC)

Current information (Y/N): Y

RCS size: LARGE

Orbital parameters

Period: 105.188 minutes

Inclination: 63.407 deg

SMA: 7381.387 km

Apoapsis: 1154.586 km

Periapsis: 851.918 km

RAAN: 159.6598 deg

Eccentricy: 0.0205021

Argument of periapsis: 26.7162 deg

Mean anomaly: 334.4264 deg

Mean motion: 13.68975941 rev/day

Mean motion (dot): -0.00000014 rev/day2

B* drag term: 0.000082525025 1/REarth

Two-line elements (TLE)

Creation date: Sept. 7, 2025, 3:09 a.m.

Reference frame: TEME

Reference center: EARTH

Epoch: Sept. 6, 2025, 10:18 p.m. UTC

TLE line 0: 0 CZ-4C R/B

TLE line 1: 1 54250U 22154B 25249.92944199 -.00000014 00000-0 82525-4 0 9991

TLE line 2: 2 54250 63.4070 159.6598 0205021 26.7162 334.4264 13.68975941140571

Live tracking on map

Real-time ground track for satellite CZ-4C R/B.

In-orbit conjunctions

A list of the most updated potential collisions computed for object CZ-4C R/B.

Target Orbit TCA Probability of collision Miss distance Type
FENGYUN 1C DEB SSO 2024-08-24 21:00:14 0.000129901 437.0 (m) DEBRIS

Associated space launch

Officially described as an optical remote-sensing satellite built by SAST.

CZ-4C R/B was lifted into orbit during the mission ‘Long March 4C | Yaogan 34-03’, on board a Long March 4C space rocket.

The launch took place on Nov. 15, 2022, 1:38 a.m. from Launch Area 4 (SLS-2 / 603).

For more information about the launch, click the button.

Launch to space Long March 4C | Yaogan 34-03
Long March 4C | Yaogan 34-03

Agency: N/A

Status: Launch Successful

Launch date: Nov. 15, 2022, 1:38 a.m. UTC

Rocket: Long March 4C

Launch pad: Launch Area 4 (SLS-2 / 603)

Location: Jiuquan Satellite Launch Center, People's Republic of China

...

Latest news about this satellite

There are no fresh news available about this satellite. Check back as we update our databases every day.


Newsletter sign-up

Weekly statistics, charts and insights to help you stay on top of the space industry.